Regional Weather Roundup
Issued by NWS Bismarck, ND

Home | Current Version | Previous Version | Text Only | Print | Product List | Glossary On
Versions: 1 2 3 4 5 6 7 8 9 10 11 12 13 14 15 16 17 18 19 20 21 22 23 24 25 26 27 28 29 30 31 32 33 34 35 36 37 38 39 40 41 42 43 44 45 46 47 48 49 50
000
ASUS43 KBIS 242010
RWRBIS

NWR BROADCAST TEXT
NATIONAL WEATHER SERVICE BISMARCK ND
300 PM CDT WED MAY 24 2017

NOTE: "FAIR" INDICATES FEW OR NO CLOUDS BELOW 12,000 FEET WITH NO
SIGNIFICANT WEATHER AND/OR OBSTRUCTIONS TO VISIBILITY.


CITY           SKY/WX    TMP DP  RH WIND       PRES   REMARKS
WILLISTON      PTSUNNY   78  38  23 SE24G32   29.33F
MINOT          FAIR      71  34  25 SE23G36   29.46F
MINOT AFB      FAIR      70  36  28 S26G39    29.45F
BISMARCK       FAIR      69  41  36 S22G33    29.55F
DICKINSON      FAIR      70  33  25 S29G40    29.41F
GARRISON         N/A     68  37  32 S25G32    29.48F
HETTINGER ARPT FAIR      71  36  27 S28G35    29.48F
JAMESTOWN      PTSUNNY   63  43  48 S20G30    29.64F
HAZEN          FAIR      70  36  28 SE28G37   29.48F
LINTON         FAIR      66  46  48 S22G29    29.60F
MANDAN         FAIR      66  41  39 SE21G32   29.55F
STANLEY        FAIR      70  36  28 S29G44    29.43F
TIOGA          FAIR      70  32  24 S33G44    29.38F
WATFORD CITY   FAIR      75  36  23 S24G40    29.34F
$$

CITY           SKY/WX    TMP DP  RH WIND       PRES   REMARKS
GRAND FORKS    FAIR      68  41  37 SE18G28   29.66F
GRAND FORKS AF FAIR      66  40  38 SE21G26   29.65F
DEVILS LAKE    FAIR      64  42  44 S22G29    29.62F
FARGO          CLOUDY    64  42  44 S17G25    29.69F
CAVALIER       FAIR      66  39  37 S22G30    29.64F
GRAFTON        FAIR      66  41  39 S25G31    29.67F
GWINNER        MOCLDY    63  43  48 MISG      29.68F
LANGDON        FAIR      66  43  42 S30G39    29.63F
ROLLA          FAIR      64  37  36 S24G33    29.58F
$$

CITY           SKY/WX    TMP DP  RH WIND       PRES   REMARKS
ABERDEEN       FAIR      65  40  39 S15G21    29.65F
MOBRIDGE       FAIR      67  41  38 S20       29.57F
BUFFALO          N/A     73  41  31 SE24G33   29.39F
RAPID CITY     FAIR      73  44  35 SE23G29   29.50F
GLASGOW        PTSUNNY   78  25  14 W25G39    29.23F
SIDNEY         FAIR      78  42  27 S28G35    29.28F
WOLF POINT     PTSUNNY   80  46  30 W9        29.24R
GLENDIVE       FAIR      82  43  25 S25G35    29.27F
MILES CITY     FAIR      83  46  27 SE17G26   29.23F
BAKER          FAIR      76  42  29 S29G43    29.37F
$$

CITY           SKY/WX    TMP DP  RH WIND       PRES   REMARKS
BILLINGS       PTSUNNY   72  42  34 NW22G32   29.32R
GREAT FALLS    FAIR      65  21  18 SW32G45   29.41F
REGINA         PTSUNNY   79  39  24 S30G43    29.16F
ESTEVAN        MOSUNNY   70  37  30 SE29G43   29.33F
$$





USA.gov is the U.S. government's official web portal to all federal, state and local government web resources and services.